Location: St. Malo Provincial Park
(49.3214°N, 96.9305°W)
Time: 08:24:18
(UTC-06:00)

Daily predictions for brighter satellites

Satellite Brightness Start Highest point End
(mag) Time Altitude Azimuth Time Altitude Azimuth Time Altitude Azimuth
ATLAS 2AS CENTAUR R/B 3.2 16:55:14 10° NW 17:03:27 90° NE 17:11:11 10° SE
Cosmos 494 Rocket 4.1 16:59:15 10° NNW 17:04:25 54° ENE 17:09:34 10° SE
YAOGAN 1 3.3 17:02:15 10° SE 17:06:06 32° ENE 17:09:57 10° N
COSMOS 2487 3.8 17:03:49 10° N 17:06:37 21° NE 17:09:24 10° ESE
Ariane Rocket 3.4 17:01:44 10° S 17:06:47 71° WSW 17:11:52 10° NNW
SPOT 3 Rocket 3.9 17:02:02 10° SE 17:06:53 42° ENE 17:11:44 10° N
MSX 4.5 17:02:19 10° ESE 17:07:22 33° ENE 17:12:25 10° N
CZ-4 R/B 1.8 17:03:34 10° SE 17:07:30 42° ENE 17:11:24 10° N
ERBS 3.9 17:05:23 10° WNW 17:08:09 22° N 17:10:54 10° NE
Cosmos 1378 Rocket 3.5 17:04:33 10° S 17:08:52 89° E 17:13:13 10° N
APEX 4.3 17:07:12 10° SSW 17:13:28 80° WNW 17:18:20 10° NNE
GEOS 3 Rocket 4.4 17:09:29 10° E 17:13:57 31° NNE 17:18:26 10° NNW
Cosmos 1484 Rocket 4.2 17:12:12 10° ESE 17:14:35 16° ENE 17:16:57 10° NNE
USA 32 4.4 17:10:21 10° SSE 17:15:14 43° E 17:20:10 10° NNE
CZ-2C R/B 2.8 17:10:31 10° SE 17:15:21 47° ENE 17:20:18 10° N
MOS 1 4.4 17:10:51 10° SE 17:16:21 55° ENE 17:21:51 10° N
Cosmos 2263 Rocket 3.3 17:11:09 10° WSW 17:16:28 41° NW 17:21:50 10° NNE
Cosmos 1455 Rocket 3.3 17:15:44 10° N 17:20:00 46° ENE 17:24:16 10° SSE
Cosmos 1125 Rocket 3.9 17:15:04 10° SSW 17:20:22 68° WNW 17:25:42 10° NNE
SJ-12 4.1 17:16:27 10° SE 17:20:25 48° ENE 17:24:25 10° N
EO 1 Del DPAF 3.7 17:18:31 10° N 17:22:23 65° WNW 17:26:14 10° SSW
CSL-04 Rocket 4.4 17:21:33 10° S 17:26:57 60° WSW 17:32:28 10° NNW
SL-8 Rocket 3.9 17:20:52 10° N 17:27:04 80° E 17:33:13 10° SSE
IDEFIX/ARIANE 42P 2.6 17:26:35 10° SSE 17:31:42 63° ENE 17:36:50 10° N
AQUARIUS 4.1 17:30:32 10° SSE 17:34:59 65° ENE 17:39:28 10° N
Okean 3 4.3 17:32:50 10° SSW 17:37:01 53° WNW 17:41:12 10° N
Thor Agena Rocket 3.8 17:32:33 10° NNE 17:37:36 48° E 17:42:40 10° S
Cosmos 2366 rocket 4.0 17:33:05 10° N 17:39:29 74° E 17:45:47 10° SSE
Cosmos 1844 Rocket 2.7 17:35:04 10° SSW 17:40:40 86° ESE 17:46:22 10° NNE
Cosmos 1959 Rocket 4.5 17:34:45 10° N 17:40:58 84° E 17:47:13 10° S
SL-27 R/B 4.0 17:38:44 10° NW 17:42:14 42° WSW 17:45:41 10° S
Cosmos 1812 2.9 17:39:40 10° S 17:43:24 49° E 17:47:09 10° NNE
Cosmos 2251 Rocket 4.0 17:39:20 10° NNW 17:44:40 68° WSW 17:49:56 10° S
Cosmos 2218 Rocket 4.0 17:40:43 10° N 17:47:04 89° W 17:53:17 10° S
CZ-2C R/B 4.0 17:43:08 10° N 17:47:34 66° WNW 17:52:00 10° SSW
Abrixas 3.2 17:49:39 10° W 17:52:31 49° SSW 17:54:52 14° ESE
CORIOLIS 4.1 17:47:43 10° SSE 17:53:08 85° ENE 17:58:33 10° NNW
Cosmos 2181 Rocket 4.5 17:48:36 10° SSW 17:54:57 66° WNW 18:01:24 10° N
Okean 1 3.5 17:52:12 10° S 17:56:08 50° E 18:00:06 10° NNE
Meteor 1-18 Rocket 4.2 17:56:33 10° S 18:02:12 77° E 18:08:02 10° NNE
Cosmos 1844 3.7 17:58:36 10° SSW 18:04:10 84° WNW 18:09:23 12° NNE
Meteor 2-21 4.4 17:59:17 10° N 18:05:30 67° ENE 18:11:36 10° SSE
ISS -3.3 18:03:14 10° WSW 18:06:32 77° NNW 18:07:47 35° ENE
Timation 2 Rocket 4.1 17:59:54 10° NNW 18:06:45 78° ENE 18:13:40 10° SE
BREEZE M DEB (TANK) 4.1 18:00:33 10° SSW 18:06:51 24° SSE 18:08:45 17° ESE
Cosmos 1346 Rocket 3.1 18:03:12 10° SSE 18:06:54 43° E 18:08:50 24° NE
Cosmos 2297 4.3 18:02:38 10° S 18:07:41 35° ESE 18:10:21 23° ENE
COSMO-SKYMED 1 3.0 18:10:34 24° NE 18:12:39 38° E 18:16:43 10° SSE
Cosmos 1821 Rocket 4.2 18:07:43 10° N 18:13:35 45° ENE 18:19:23 10° SE
SL-24 DEB 4.2 18:13:30 10° N 18:18:16 76° E 18:22:58 10° S
NOAA 12 4.3 18:13:40 10° SE 18:18:38 44° ENE 18:23:36 10° N
Intercosmos 25 2.9 18:15:32 10° N 18:18:52 53° ENE 18:21:59 10° SSE
Cosmos 2278 Rocket 2.1 18:13:43 10° SSW 18:19:22 82° ESE 18:23:40 18° NNE
SMAP 4.0 18:15:06 10° S 18:19:36 50° W 18:24:09 10° NNW
CZ-3B DEB 2.6 18:21:10 10° SW 18:25:27 78° SE 18:31:37 24° ENE
Meteor 2-14 Rocket 4.3 18:19:20 10° N 18:25:31 70° ENE 18:31:39 10° SSE
ATLAS CENTAUR R/B 3.8 18:24:58 10° NNW 18:26:01 11° N 18:26:57 10° N
USA 234 3.2 18:22:16 25° ENE 18:26:25 80° SE 18:32:58 10° SW
SL-8 R/B 4.0 18:24:10 10° SW 18:28:49 54° SSE 18:30:27 36° ESE
Cosmos 407 Rocket 3.9 18:28:01 10° N 18:32:48 37° ENE 18:33:03 37° ENE
Cosmos 1536 Rocket 4.1 18:29:33 10° SSW 18:33:58 61° WNW 18:38:26 10° N
METEOR-M 4.2 18:29:12 10° SE 18:34:19 50° ENE 18:39:30 10° N
Spot 2 Rocket 4.3 18:36:40 32° NE 18:36:40 32° NE 18:40:15 10° N
Cosmos 1025 Rocket 4.0 18:33:41 10° SSE 18:36:25 31° SE 18:36:25 31° SE
Cosmos 1833 Rocket 2.7 18:32:13 10° NNW 18:37:55 86° WSW 18:43:33 10° SSE
Cosmos 1743 2.6 18:35:15 10° N 18:39:10 88° ENE 18:43:02 10° S
Cosmos 1975 4.3 18:35:28 10° NNW 18:39:17 39° W 18:43:03 10° SSW
NOSS 3-4 (A) 3.7 18:32:33 10° NW 18:39:28 75° NE 18:45:07 18° SE
NOSS 3-4 (C) 3.7 18:32:39 10° NW 18:39:34 74° NE 18:45:08 19° SE
Cosmos 921 Rocket 3.0 18:36:02 10° S 18:40:11 54° ESE 18:40:22 53° E
Cosmos 2082 Rocket 2.4 18:35:07 10° NNW 18:40:46 73° WSW 18:46:26 10° SSE
COSMOS 2487 4.1 18:38:57 10° NW 18:42:17 36° WSW 18:45:35 10° S
CZ-4 R/B 4.1 18:39:31 10° SW 18:42:44 21° W 18:45:56 10° NW
SKYMED 3 4.4 18:40:58 34° NNE 18:42:49 77° ESE 18:47:09 10° S
Nadezhda 3 Rocket 3.9 18:36:52 10° S 18:43:04 82° E 18:49:24 10° N
Meteor 1-19 Rocket 4.2 18:39:20 10° S 18:45:04 64° E 18:49:13 20° NNE
ERBS 3.9 18:42:34 10° NW 18:44:38 25° NNW 18:44:38 25° NNW
Cosmos 1484 Rocket 3.6 18:45:05 10° S 18:48:43 49° W 18:52:22 10° NNW
Meteor 2-16 Rocket 4.4 18:43:21 10° N 18:49:28 88° W 18:55:34 10° S
NOSS 3-3 (A) 4.0 18:43:18 10° SW 18:49:36 84° NW 18:53:02 32° NE
NOSS 3-3 (C) 4.0 18:43:24 10° SW 18:49:42 85° NW 18:53:07 32° NE
BREEZE-M DEB (TANK) 3.3 18:48:26 10° W 18:49:43 35° W 18:49:43 35° W
Meteor 1-15 Rocket 4.3 18:45:47 10° N 18:51:38 58° ENE 18:57:22 10° SSE
GEOS 3 Rocket 3.6 18:47:42 17° SE 18:51:41 78° SW 18:56:50 10° NW
ALOS 4.5 18:55:36 13° N 18:55:36 13° N 18:56:08 10° N
Cosmos 1371 Rocket 4.3 18:47:15 10° S 18:52:09 46° ESE 18:52:09 46° ESE
Tiangong 1 3.5 18:50:24 10° SSW 18:51:36 16° SSW 18:51:36 16° SSW
SKYMED 2 3.7 18:59:11 37° N 19:00:51 72° WNW 19:05:09 10° SSW
Meteor 1-13 Rocket 4.3 18:59:20 10° SSW 19:05:02 77° WNW 19:10:17 13° N
CZ-3A R/B 4.4 18:59:18 10° W 19:06:10 74° N 19:23:32 30° ENE
Meteor 1-23 Rocket 4.1 19:06:00 10° S 19:11:35 67° E 19:11:35 67° E
Okean 1-7 Rocket 4.1 19:11:54 10° SSW 19:16:21 59° WNW 19:17:26 45° NNW
Resurs 01 Rocket 4.0 19:21:03 13° N 19:21:03 13° N 19:21:29 10° N
Meteor 2-9 Rocket 4.2 19:12:17 10° NNW 19:17:46 77° W 19:23:06 10° S
Meteor 2-4 Rocket 3.4 19:15:34 10° S 19:20:56 88° ESE 19:21:04 85° NE
Cosmos 1190 Rocket 3.9 19:16:30 10° NNW 19:21:48 82° WSW 19:22:12 75° S
Cosmos 1934 Rocket 4.2 19:23:44 10° NNW 19:29:53 67° W 19:36:05 10° S
ISS 0.0 19:39:58 10° WNW 19:40:27 13° WNW 19:40:27 13° WNW
BREEZE-M R/B 4.2 19:46:42 10° WSW 19:52:57 53° WSW 19:52:57 53° WSW
Cosmos 2278 Rocket 4.0 19:59:38 10° W 20:04:10 24° NW 20:05:32 22° NNW
USA 234 3.7 20:09:37 53° NNW 20:09:37 53° NNW 20:15:35 10° W
CZ-3B DEB 3.9 20:54:00 10° W 20:59:54 61° NNW 20:59:54 61° NNW
